Location: Unspecified
(42.3650°N, 71.1030°W)
Time: 07:31:39
(UTC+00:00)

Envisat - Visible Passes

Search period start: 18 May 2024 00:00
Search period end: 28 May 2024 00:00
Orbit: 762 x 764 km, 98.3° (Epoch: 17 May)

Date Brightness Start Highest point End Pass type
(mag) Time Alt. Az. Time Alt. Az. Time Alt. Az.
18 May 3.1 08:04:02 10° NNE 08:09:08 81° ESE 08:14:12 10° S visible
19 May 4.3 07:27:00 10° NNE 07:31:40 36° E 07:36:18 10° SSE visible
20 May 5.4 06:50:53 10° NE 06:54:00 16° E 06:57:07 10° SE visible
20 May 3.1 08:28:22 10° N 08:33:22 61° WNW 08:38:21 10° SSW visible
21 May 3.4 07:51:00 10° NNE 07:56:02 61° E 08:01:02 10° S visible
22 May 4.7 07:14:11 10° NE 07:18:30 27° E 07:22:47 10° SSE visible
23 May 5.6 06:38:50 10° ENE 06:40:45 12° E 06:42:39 10° ESE visible
23 May 3.0 08:15:13 10° N 08:20:19 80° WNW 08:25:22 10° SSW visible
24 May 3.9 07:38:01 10° NNE 07:42:54 46° E 07:47:45 10° S visible
25 May 5.1 07:01:30 10° NE 07:05:17 21° E 07:09:04 10° SE visible
25 May 3.4 08:39:38 10° N 08:44:29 47° WNW 08:49:20 10° SW visible
26 May 3.1 08:02:07 10° NNE 08:07:13 79° ESE 08:12:17 10° S visible
27 May 4.4 07:25:06 10° NNE 07:29:44 35° E 07:34:21 10° SSE visible
